OBJECT F, 65790

Orbit data source: Space-Track

You're viewing an Uncataloged Satellite

Recently launched and/or uncataloged satellites may have evolving metadata. Metadata may include but not limited to: Owner, Maufacturer, Bus, Motor, and Mission.

OBJECT F, 65790 is a satellite owned by IRSA (IR) in LEO that was launched on Sun, 28 Jan 2024 UTC launched from the Semnan, Iran (SEM). Unknown objects in Earth's orbit typically refer to objects detected orbiting the Earth but have not yet been identified or cataloged. These objects could be anything from previously untracked satellites, spent rocket stages, debris from satellite collisions, or even natural meteoroids temporarily captured by Earth's gravity.

Loading next visibility...
Identifier
65790, 2024-018F
Orbit
LEO
Country
Flag of IRIR / IRAN
Related business
Manufacturer
IRSA
Mission
Spacecraft
Bus & Motor
Unknown
Mass
Unknown
Launch date (UTC)
2024-01-28 (2 years ago)
Launch vehicle
Unknown
Launch site
Semnan, Iran (SEM)
Object type
Unknown
Shape & HBR
Unknown shape, 0.1 m
Radar Cross Section
Small (<0.1 m²)

Expand to show TLE details & history
Last TLE update: 4 days ago

TLE from 4 days ago
0 OBJECT F
1 65790U 24018F   26168.25368758  .00002674  00000-0  27069-3 0  9995
2 65790  58.3009 167.8441 0381708 202.1680 156.2458 14.52364188 35181
Epoch: 2026-06-17T06:05Z
TLE epoch observation values (Epoch: 2026-06-17T06:05:18.606Z)
Latitude
-0.00009°
Longitude
171.0025°
Altitude
968.84 km
Speed
7.238 km/s
True Right ascension
11h 11m 22s
True Declination
0° 00' 00"
Sunlit
Object was in daylight at epoch
Visualization orbit readout
Latitude
Unknown
Longitude
Unknown
Altitude
Unknown
Speed
Unknown
Apparent Right ascension
Unknown
Apparent Declination
Unknown
Sunlit
N/A
Visualization observer readout
Local Sidereal Time
07:16:27
Azimuth
Unknown
Elevation
Unknown
Doppler factor
Unknown
Orbital elements
Apogee altitude
988.25 km
Perigee altitude
446.565 km
Semi-major axis
7,095.545 km
Eccentricity
0.03817
Inclination
58.3009°
RAAN
167.8441°
Arg. of periapsis
202.168°
True anomaly
157.93364°
Mean anomaly
156.2458°
Eccentric anomaly
157.09693°
Mean motion
3.63132 °/min
Orbital period
99.14 mins
BSTAR
0.00027069
Loading maneuver chart data...
Computing Atmospheric mass density...
Loading historical data...
Loading historical data...
Loading historical data...
Loading historical data...
Loading historical data...
Loading historical data...
Loading historical data...
Other satellites on launch #18 in the year 2024 (2024-01-28 UTC)

Documentation

Showing up to 5 results
|